Date String (YYYY-MM-DD hh:mm:ss) UTC,Instrument flags,Ambient pressure (hPa),Sample flow (lpm),Bypass flow (lpm),Sample temperature (°C),Ambient temperature (°C),ASC tube jacket temperature (°C),LED temperature (°C),Box temperature (°C),Sample RH (%),Span deviation,Mass concentration (μg/m³),Mass concentration (μg/m³),Mass concentration (μg/m³)
DateTimeUTC,F1_M11,P_M11,Q1_M11,Q2_M11,T1_M11,T2_M11,T3_M11,T4_M11,T5_M11,U1_M11,ZSPAN_M11,X0_M11,X2_M11,X1_M11
2022-02-21 06:00:00,,0814.4,5.01,0.00,25.1,24.3,00.0,34.2,26.9,05.8,0000.0,0003.20,0001.18,0000.85
2022-02-21 06:01:00,,0814.3,4.99,0.00,25.1,24.3,00.0,34.2,26.8,05.4,0000.0,0003.30,0001.21,0000.84
2022-02-21 06:02:00,,0814.4,5.00,0.00,25.1,24.2,00.0,34.2,26.8,05.4,0000.0,0003.29,0001.21,0000.84
2022-02-21 06:03:00,,0814.4,5.01,0.00,25.1,24.2,00.0,34.2,26.8,06.0,0000.0,0002.87,0001.21,0000.86
2022-02-21 06:04:00,,0814.4,5.00,0.00,25.1,24.2,00.0,34.2,26.8,06.1,0000.0,0002.98,0001.28,0000.87
2022-02-21 06:05:00,,0814.4,4.99,0.00,25.1,24.2,00.0,34.2,26.8,06.3,0000.0,0002.97,0001.29,0000.89
2022-02-21 06:06:00,,0814.4,5.02,0.00,25.0,24.2,00.0,34.2,26.7,06.1,0000.0,0002.95,0001.30,0000.90
2022-02-21 06:07:00,,0814.4,4.99,0.00,25.0,24.2,00.0,34.1,26.7,06.3,0000.0,0003.06,0001.29,0000.91
2022-02-21 06:08:00,,0814.4,5.01,0.00,25.0,24.2,00.0,34.1,26.8,06.2,0000.0,0003.10,0001.30,0000.91
2022-02-21 06:09:00,,0814.4,5.00,0.00,25.0,24.2,00.0,34.1,26.7,06.0,0000.0,0002.77,0001.27,0000.90
2022-02-21 06:10:00,,0814.4,4.99,0.00,25.0,24.1,00.0,34.1,26.7,06.0,0000.0,0003.36,0001.24,0000.90
2022-02-21 06:11:00,,0814.4,5.01,0.00,25.0,24.1,00.0,34.1,26.7,05.9,0000.0,0003.27,0001.21,0000.90
2022-02-21 06:12:00,,0814.4,4.99,0.00,25.0,24.0,00.0,34.1,26.7,05.6,0000.0,0003.16,0001.17,0000.90
2022-02-21 06:13:00,,0814.4,5.01,0.00,25.0,24.1,00.0,34.1,26.7,06.0,0000.0,0003.11,0001.17,0000.92
2022-02-21 06:14:00,,0814.4,4.99,0.00,24.9,24.0,00.0,34.1,26.6,06.0,0000.0,0003.48,0001.22,0000.94
2022-02-21 06:15:00,,0814.4,5.01,0.00,24.9,24.0,00.0,34.1,26.7,05.8,0000.0,0004.30,0001.22,0000.95
2022-02-21 06:16:00,,0814.4,5.02,0.00,24.9,24.0,00.0,34.0,26.6,05.6,0000.0,0004.35,0001.20,0000.93
2022-02-21 06:17:00,,0814.4,5.00,0.00,24.9,24.0,00.0,34.0,26.6,05.7,0000.0,0005.80,0001.25,0000.92
2022-02-21 06:18:00,,0814.3,5.00,0.00,24.9,24.0,00.0,34.0,26.6,05.5,0000.0,0006.24,0001.23,0000.91
2022-02-21 06:19:00,,0814.3,5.02,0.00,24.9,24.0,00.0,34.0,26.7,05.6,0000.0,0006.25,0001.24,0000.90
2022-02-21 06:20:00,,0814.3,4.99,0.00,24.9,24.0,00.0,34.0,26.7,05.9,0000.0,0006.01,0001.25,0000.90
2022-02-21 06:21:00,,0814.2,5.00,0.00,24.9,24.1,00.0,34.0,26.6,06.3,0000.0,0005.35,0001.27,0000.90
2022-02-21 06:22:00,,0814.1,5.01,0.00,24.9,24.1,00.0,34.0,26.6,06.1,0000.0,0005.40,0001.29,0000.90
2022-02-21 06:23:00,,0814.1,4.99,0.00,24.9,24.0,00.0,34.0,26.6,06.2,0000.0,0005.48,0001.32,0000.90
2022-02-21 06:24:00,,0814.2,5.00,0.00,24.9,24.0,00.0,34.0,26.5,06.2,0000.0,0005.68,0001.34,0000.90
2022-02-21 06:25:00,,0814.1,5.01,0.00,24.8,24.0,00.0,34.0,26.6,06.2,0000.0,0005.50,0001.32,0000.90
2022-02-21 06:26:00,,0814.1,4.98,0.00,24.8,23.9,00.0,34.0,26.6,06.2,0000.0,0004.63,0001.32,0000.90
2022-02-21 06:27:00,,0814.2,5.01,0.00,24.8,23.9,00.0,33.9,26.5,06.1,0000.0,0004.57,0001.36,0000.91
2022-02-21 06:28:00,,0814.0,5.00,0.00,24.8,23.9,00.0,33.9,26.5,06.2,0000.0,0003.88,0001.37,0000.94
2022-02-21 06:29:00,,0814.1,4.99,0.00,24.8,23.9,00.0,33.9,26.5,06.1,0000.0,0003.22,0001.39,0000.95
2022-02-21 06:30:00,,0814.1,5.02,0.00,24.8,23.9,00.0,33.9,26.6,06.1,0000.0,0003.27,0001.41,0000.95
2022-02-21 06:31:00,,0814.0,4.99,0.00,24.8,23.9,00.0,33.9,26.5,06.0,0000.0,0003.70,0001.43,0000.96
2022-02-21 06:32:00,,0814.0,5.00,0.00,24.8,23.9,00.0,33.9,26.5,05.8,0000.0,0003.89,0001.44,0000.96
2022-02-21 06:33:00,,0814.0,5.02,0.00,24.8,23.9,00.0,33.9,26.5,05.8,0000.0,0003.74,0001.40,0000.95
2022-02-21 06:34:00,,0814.1,5.00,0.00,24.7,23.9,00.0,33.9,26.5,05.4,0000.0,0003.61,0001.35,0000.93
2022-02-21 06:35:00,,0814.2,5.00,0.00,24.7,23.8,00.0,33.9,26.4,05.1,0000.0,0003.38,0001.31,0000.91
2022-02-21 06:36:00,,0814.1,5.00,0.00,24.6,23.7,00.0,33.8,26.4,05.2,0000.0,0003.40,0001.27,0000.88
2022-02-21 06:37:00,,0814.2,4.99,0.00,24.6,23.7,00.0,33.8,26.3,05.3,0000.0,0003.45,0001.21,0000.85
2022-02-21 06:38:00,,0814.2,5.01,0.00,24.5,23.6,00.0,33.8,26.3,05.1,0000.0,0003.57,0001.17,0000.82
2022-02-21 06:39:00,,0813.8,4.99,0.00,24.5,23.5,00.0,33.8,26.2,05.1,0000.0,0003.44,0001.09,0000.78
2022-02-21 06:40:00,,0813.8,5.00,0.00,24.5,23.5,00.0,33.7,26.2,05.0,0000.0,0003.16,0001.03,0000.76
2022-02-21 06:41:00,,0814.0,5.00,0.00,24.4,23.4,00.0,33.7,26.1,05.1,0000.0,0003.03,0000.98,0000.74
2022-02-21 06:42:00,,0813.9,5.00,0.00,24.4,23.4,00.0,33.7,26.1,05.1,0000.0,0002.60,0000.92,0000.71
2022-02-21 06:43:00,,0813.8,5.01,0.00,24.3,23.4,00.0,33.6,26.0,05.4,0000.0,0002.91,0000.92,0000.70
2022-02-21 06:44:00,,0814.0,4.99,0.00,24.3,23.4,00.0,33.6,26.0,06.1,0000.0,0002.90,0000.95,0000.70
2022-02-21 06:45:00,,0813.9,5.00,0.00,24.3,23.5,00.0,33.6,26.0,06.9,0000.0,0002.98,0000.99,0000.72
2022-02-21 06:46:00,,0813.8,5.00,0.00,24.3,23.5,00.0,33.6,26.0,06.8,0000.0,0003.15,0001.07,0000.74
2022-02-21 06:47:00,,0813.7,5.01,0.00,24.3,23.5,00.0,33.5,26.0,06.5,0000.0,0004.50,0001.16,0000.77
2022-02-21 06:48:00,,0813.7,5.00,0.00,24.3,23.5,00.0,33.5,26.1,06.5,0000.0,0004.56,0001.18,0000.79
2022-02-21 06:49:00,,0813.7,4.99,0.00,24.4,23.5,00.0,33.5,26.1,06.1,0000.0,0004.54,0001.22,0000.82
2022-02-21 06:50:00,,0813.8,4.99,0.00,24.4,23.6,00.0,33.5,26.1,06.1,0000.0,0004.26,0001.24,0000.84
2022-02-21 06:51:00,,0813.7,5.01,0.00,24.4,23.6,00.0,33.5,26.1,06.0,0000.0,0004.30,0001.29,0000.85
2022-02-21 06:52:00,,0814.2,5.02,0.00,24.4,23.6,00.0,33.5,26.1,05.8,0000.0,0004.33,0001.32,0000.86
2022-02-21 06:53:00,,0813.8,4.99,0.00,24.4,23.6,00.0,33.5,26.2,05.5,0000.0,0004.43,0001.33,0000.86
2022-02-21 06:54:00,,0814.1,5.00,0.00,24.4,23.6,00.0,33.5,26.1,05.5,0000.0,0003.85,0001.34,0000.86
2022-02-21 06:55:00,,0813.9,5.01,0.00,24.3,23.6,00.0,33.5,26.1,05.3,0000.0,0003.72,0001.28,0000.83
2022-02-21 06:56:00,,0814.2,4.99,0.00,24.3,23.5,00.0,33.5,26.1,05.2,0000.0,0003.71,0001.28,0000.81
2022-02-21 06:57:00,,0814.1,5.01,0.00,24.3,23.5,00.0,33.4,26.0,05.6,0000.0,0003.74,0001.24,0000.80
2022-02-21 06:58:00,,0813.7,5.01,0.00,24.3,23.5,00.0,33.4,26.0,05.7,0000.0,0002.67,0001.21,0000.80
2022-02-21 06:59:00,,0813.7,4.99,0.00,24.3,23.6,00.0,33.4,26.1,05.8,0000.0,0002.29,0001.21,0000.79
